Location: *
(2.7500°S, 66.6833°W)
Time: 04:55:55
(UTC+00:00)

Ariane H10+ - Pass Details

Date: 24 May 2024
Orbit: 451 x 35860 km, 7.1° (Epoch: 23 June)

Event Time Altitude Azimuth Distance (km) Brightness Sun altitude
Rises 23:32:05 0° 257° (WSW) 2,443 6.6 -16.9°
Reaches altitude 10° 23:33:45 10° 250° (WSW) 1,596 5.4 -17.3°
Maximum altitude 23:36:32 49° 172° (S) 787 2.8 -18.0°
Enters shadow 23:38:05 33° 118° (ESE) 1,258 3.5 -18.3°
